This is the latest recevied weather packets stored in our database for station/object KC3BAN-3. If no packets are shown the sender has not sent any weather packets the latest 10 day(s).
| Time | Temp. | Humidity | Pressure | Rain* | Wind** | Luminosity | Snow |
|---|---|---|---|---|---|---|---|
| 1778170694 | 13.33° C | 95% | 1011 hPa | 0.51 mm | - | - | - |
| 1778170266 | 13.33° C | 95% | 1010.9 hPa | 0.25 mm | - | - | - |
| 1778169966 | 13.33° C | 95% | 1010.4 hPa | 0.25 mm | - | - | - |
| 1778169793 | 13.89° C | 95% | 1010 hPa | 0.25 mm | - | - | - |
| 1778169366 | 13.89° C | 95% | 1010 hPa | 0.25 mm | - | - | - |
| 1778169066 | 13.89° C | 95% | 1009.7 hPa | 0.25 mm | - | - | - |
| 1778168766 | 13.89° C | 95% | 1009.4 hPa | 0.25 mm | - | - | - |
| 1778168465 | 13.89° C | 95% | 1009.4 hPa | 0.25 mm | - | - | - |
| 1778168166 | 13.89° C | 95% | 1009.7 hPa | 0.25 mm | - | - | - |
| 1778167866 | 14.44° C | 95% | 1009.9 hPa | 0.25 mm | - | - | - |
| 1778167566 | 14.44° C | 94% | 1009.9 hPa | 0.25 mm | - | - | - |
| 1778167266 | 15° C | 94% | 1010 hPa | 0.25 mm | - | - | - |
| 1778167094 | 15° C | 94% | 1010.2 hPa | 0 mm | - | - | - |
| 1778166670 | 15.56° C | 93% | 1010.3 hPa | 0 mm | - | - | - |
| 1778166366 | 15.56° C | 93% | 1009.9 hPa | 0 mm | - | - | - |
| 1778166066 | 16.11° C | 93% | 1009.7 hPa | 0 mm | - | - | - |
| 1778165766 | 16.67° C | 92% | 1009.6 hPa | 0 mm | - | - | - |
| 1778165465 | 17.22° C | 94% | 1009.7 hPa | 0 mm | - | - | - |
| 1778165166 | 18.33° C | 89% | 1009.6 hPa | 0 mm | - | - | - |
| 1778164866 | 20.56° C | 95% | 1009.7 hPa | 0 mm | - | - | - |
| 1778164566 | 20.56° C | 95% | 1009.6 hPa | 0 mm | - | - | - |
| 1778164265 | 20.56° C | 95% | 1009.6 hPa | 0 mm | - | - | - |
| 1778163966 | 20.56° C | 95% | 1009.7 hPa | 0 mm | - | - | - |
| 1778163665 | 20.56° C | 95% | 1009.7 hPa | 0 mm | - | - | - |
| 1778163367 | 20.56° C | 95% | 1009.9 hPa | 0 mm | - | - | - |
* Rain latest hour (hover to see other rain measurements)
** Current wind speed in m/s (hover to see current wind gust speed)